QPF
0.00 0.00 0.00 0.00 0.00 0.00 0.00 0.00 0.00 0.00 0.00 0.00 0.00 0.00 0.00 0.02 0.06 0.09 0.02 0.00 0.00 0.00 0.00 0.00 0.00 0.00 0.00 0.00 0.01 0.01 0.01 0.01 0.00 0.00 0.00 0.00 0.00 0.00 0.00 0.00 0.01 0.01 0.01 0.01 0.01 0.00 0.00 0.00 0.00
0.00 0.00 0.00 0.00 0.00 0.00 0.00 0.00 0.00 0.00 0.00 0.00 0.00 0.00 0.00 0.00 0.01 0.01 0.01 0.00 0.00 0.00 0.00 0.00 0.00 0.00 0.00 0.00 0.01 0.02 0.01 0.01 0.01 0.00 0.00 0.00 0.00 0.00 0.00 0.00 0.00 0.01 0.01 0.01 0.00 0.00 0.00 0.00 0.00
0.00 0.00 0.00 0.00 0.00 0.00 0.00 0.00 0.00 0.00 0.00 0.00 0.00 0.00 0.00 0.01 0.00 0.00 0.01 0.01 0.00 0.00 0.00 0.00 0.00 0.00 0.00 0.00 0.01 0.02 0.02 0.01 0.02 0.02 0.01 0.00 0.00 0.00 0.00 0.00 0.00 0.00 0.01 0.01 0.00 0.00 0.01 0.00 0.00
0.00 0.00 0.00 0.00 0.00 0.00 0.00 0.00 0.00 0.00 0.00 0.00 0.00 0.00 0.00 0.00 0.01 0.01 0.01 0.01 0.01 0.00 0.01 0.00 0.00 0.00 0.01 0.01 0.02 0.03 0.03 0.02 0.03 0.02 0.01 0.01 0.00 0.00 0.01 0.00 0.00 0.00 0.01 0.01 0.00 0.00 0.01 0.00 0.00
0.00 0.00 0.00 0.00 0.00 0.00 0.00 0.00 0.00 0.00 0.01 0.01 0.01 0.00 0.00 0.01 0.01 0.01 0.01 0.01 0.02 0.02 0.03 0.01 0.01 0.01 0.01 0.02 0.02 0.03 0.03 0.03 0.02 0.01 0.01 0.01 0.01 0.01 0.01 0.01 0.00 0.00 0.00 0.00 0.00 0.00 0.00 0.00 0.00
0.00 0.00 0.00 0.00 0.00 0.00 0.00 0.00 0.00 0.01 0.01 0.01 0.02 0.01 0.01 0.01 0.01 0.01 0.02 0.01 0.03 0.04 0.04 0.02 0.01 0.01 0.02 0.02 0.03 0.03 0.04 0.04 0.03 0.02 0.02 0.02 0.01 0.01 0.01 0.01 0.01 0.01 0.01 0.00 0.00 0.00 0.00 0.00 0.00
0.00 0.00 0.00 0.00 0.00 0.00 0.00 0.00 0.00 0.01 0.04 0.03 0.04 0.03 0.02 0.01 0.01 0.01 0.01 0.01 0.02 0.03 0.05 0.06 0.02 0.02 0.03 0.03 0.03 0.03 0.04 0.04 0.03 0.03 0.04 0.03 0.03 0.02 0.02 0.01 0.01 0.01 0.01 0.01 0.01 0.00 0.00 0.00 0.00
0.00 0.00 0.00 0.00 0.00 0.00 0.00 0.00 0.01 0.01 0.03 0.08 0.07 0.05 0.02 0.01 0.00 0.00 0.01 0.01 0.02 0.03 0.05 0.08 0.09 0.07 0.06 0.06 0.05 0.05 0.06 0.04 0.03 0.03 0.03 0.04 0.04 0.03 0.03 0.02 0.02 0.01 0.01 0.01 0.01 0.01 0.01 0.01 0.00
0.00 0.00 0.00 0.00 0.00 0.00 0.00 0.00 0.01 0.01 0.05 0.12 0.08 0.03 0.02 0.00 0.00 0.01 0.01 0.02 0.04 0.04 0.04 0.05 0.09 0.12 0.08 0.09 0.05 0.05 0.05 0.04 0.04 0.04 0.03 0.04 0.07 0.07 0.05 0.04 0.03 0.02 0.02 0.02 0.02 0.01 0.01 0.01 0.00
0.00 0.00 0.00 0.00 0.00 0.00 0.00 0.00 0.00 0.00 0.01 0.03 0.05 0.03 0.01 0.00 0.01 0.02 0.02 0.04 0.05 0.05 0.04 0.04 0.04 0.07 0.07 0.06 0.07 0.07 0.06 0.06 0.07 0.07 0.05 0.07 0.13 0.14 0.12 0.13 0.07 0.05 0.04 0.03 0.02 0.02 0.01 0.01 0.01
0.00 0.00 0.00 0.00 0.00 0.01 0.02 0.01 0.01 0.01 0.03 0.06 0.03 0.01 0.01 0.01 0.03 0.04 0.04 0.04 0.06 0.06 0.06 0.06 0.06 0.05 0.07 0.09 0.10 0.13 0.15 0.14 0.14 0.17 0.16 0.13 0.13 0.13 0.15 0.18 0.12 0.09 0.09 0.09 0.08 0.04 0.03 0.02 0.03
0.00 0.00 0.00 0.00 0.00 0.01 0.02 0.01 0.03 0.03 0.06 0.11 0.04 0.01 0.01 0.02 0.03 0.05 0.05 0.06 0.07 0.08 0.09 0.11 0.12 0.10 0.12 0.17 0.18 0.15 0.19 0.24 0.24 0.24 0.21 0.17 0.16 0.16 0.15 0.16 0.16 0.15 0.18 0.21 0.21 0.14 0.09 0.07 0.05
0.00 0.00 0.00 0.00 0.00 0.00 0.01 0.02 0.05 0.03 0.03 0.06 0.03 0.01 0.01 0.02 0.03 0.05 0.08 0.07 0.10 0.13 0.09 0.08 0.12 0.15 0.15 0.15 0.17 0.15 0.16 0.24 0.26 0.27 0.23 0.19 0.19 0.22 0.24 0.18 0.16 0.15 0.16 0.18 0.19 0.17 0.15 0.14 0.12
0.00 0.00 0.00 0.00 0.00 0.01 0.02 0.04 0.03 0.01 0.01 0.01 0.02 0.01 0.02 0.02 0.02 0.03 0.08 0.10 0.13 0.18 0.12 0.10 0.14 0.17 0.14 0.14 0.15 0.17 0.21 0.25 0.22 0.23 0.24 0.21 0.20 0.21 0.22 0.21 0.16 0.14 0.15 0.16 0.16 0.15 0.15 0.13 0.12
0.00 0.00 0.00 0.00 0.01 0.02 0.02 0.04 0.04 0.02 0.01 0.01 0.02 0.02 0.04 0.03 0.02 0.02 0.03 0.07 0.11 0.12 0.11 0.12 0.15 0.18 0.16 0.13 0.14 0.19 0.21 0.22 0.21 0.25 0.27 0.27 0.22 0.22 0.19 0.20 0.18 0.15 0.14 0.15 0.14 0.12 0.13 0.12 0.11
0.00 0.00 0.01 0.01 0.01 0.02 0.00 0.05 0.10 0.03 0.01 0.02 0.01 0.01 0.02 0.02 0.01 0.02 0.02 0.03 0.04 0.05 0.05 0.07 0.09 0.11 0.13 0.15 0.20 0.22 0.23 0.22 0.21 0.19 0.20 0.22 0.23 0.21 0.20 0.19 0.17 0.16 0.13 0.15 0.16 0.15 0.14 0.15 0.12
0.00 0.00 0.02 0.02 0.00 0.00 0.01 0.08 0.13 0.03 0.02 0.04 0.02 0.01 0.01 0.01 0.01 0.02 0.02 0.03 0.03 0.03 0.03 0.03 0.04 0.04 0.06 0.11 0.18 0.17 0.19 0.19 0.20 0.18 0.17 0.18 0.21 0.18 0.18 0.19 0.17 0.15 0.14 0.15 0.13 0.16 0.14 0.15 0.14
0.02 0.02 0.05 0.02 0.01 0.00 0.02 0.07 0.07 0.03 0.02 0.03 0.02 0.01 0.01 0.01 0.02 0.01 0.02 0.03 0.03 0.02 0.02 0.03 0.02 0.03 0.04 0.07 0.12 0.14 0.16 0.18 0.17 0.19 0.16 0.16 0.17 0.16 0.16 0.15 0.14 0.15 0.16 0.16 0.14 0.15 0.13 0.14 0.14
0.03 0.03 0.06 0.03 0.01 0.01 0.02 0.05 0.06 0.03 0.01 0.02 0.02 0.01 0.02 0.04 0.04 0.02 0.02 0.01 0.02 0.02 0.02 0.03 0.02 0.03 0.05 0.06 0.09 0.16 0.18 0.17 0.15 0.14 0.14 0.13 0.13 0.13 0.13 0.14 0.13 0.13 0.13 0.14 0.13 0.13 0.12 0.11 0.12
0.01 0.03 0.04 0.03 0.03 0.04 0.06 0.05 0.08 0.03 0.01 0.01 0.02 0.03 0.03 0.03 0.02 0.02 0.02 0.02 0.02 0.02 0.02 0.03 0.03 0.03 0.05 0.07 0.08 0.11 0.14 0.17 0.15 0.14 0.15 0.14 0.13 0.13 0.13 0.13 0.13 0.12 0.13 0.13 0.12 0.12 0.12 0.12 0.12
0.00 0.01 0.02 0.04 0.02 0.04 0.08 0.09 0.10 0.04 0.03 0.03 0.02 0.02 0.02 0.02 0.02 0.02 0.03 0.02 0.01 0.01 0.02 0.03 0.03 0.05 0.07 0.08 0.10 0.11 0.13 0.17 0.15 0.12 0.14 0.14 0.13 0.12 0.11 0.11 0.12 0.13 0.12 0.12 0.10 0.09 0.11 0.11 0.11
0.00 0.00 0.02 0.03 0.01 0.02 0.04 0.08 0.08 0.03 0.03 0.02 0.01 0.03 0.02 0.02 0.02 0.03 0.03 0.02 0.01 0.01 0.01 0.01 0.02 0.04 0.06 0.08 0.10 0.11 0.12 0.14 0.17 0.12 0.11 0.10 0.10 0.08 0.08 0.08 0.08 0.08 0.09 0.09 0.08 0.09 0.09 0.09 0.11
0.01 0.00 0.01 0.01 0.01 0.02 0.03 0.06 0.08 0.06 0.05 0.03 0.03 0.04 0.02 0.02 0.04 0.04 0.03 0.02 0.02 0.01 0.01 0.01 0.01 0.02 0.02 0.04 0.06 0.06 0.07 0.09 0.12 0.11 0.08 0.07 0.05 0.04 0.04 0.03 0.03 0.04 0.05 0.05 0.05 0.06 0.07 0.08 0.10
0.00 0.00 0.00 0.00 0.02 0.03 0.03 0.05 0.09 0.09 0.11 0.09 0.06 0.04 0.03 0.04 0.05 0.05 0.03 0.03 0.03 0.02 0.01 0.01 0.01 0.02 0.01 0.02 0.05 0.07 0.07 0.09 0.10 0.08 0.07 0.05 0.03 0.02 0.02 0.01 0.02 0.02 0.02 0.03 0.03 0.03 0.04 0.06 0.07
0.00 0.01 0.04 0.06 0.07 0.07 0.04 0.04 0.08 0.09 0.12 0.09 0.06 0.04 0.03 0.04 0.04 0.06 0.06 0.04 0.03 0.02 0.01 0.01 0.01 0.01 0.01 0.02 0.03 0.05 0.06 0.09 0.10 0.09 0.08 0.07 0.03 0.02 0.01 0.01 0.01 0.01 0.02 0.02 0.02 0.03 0.03 0.04 0.05
0.00 0.02 0.09 0.10 0.09 0.09 0.07 0.09 0.11 0.08 0.07 0.06 0.05 0.04 0.03 0.03 0.04 0.05 0.05 0.04 0.03 0.03 0.02 0.01 0.02 0.02 0.02 0.03 0.03 0.03 0.04 0.05 0.06 0.06 0.05 0.04 0.02 0.01 0.01 0.01 0.01 0.00 0.01 0.01 0.01 0.03 0.03 0.04 0.04
0.01 0.03 0.06 0.07 0.05 0.07 0.09 0.11 0.12 0.06 0.05 0.04 0.03 0.04 0.03 0.03 0.04 0.05 0.05 0.04 0.03 0.03 0.03 0.02 0.02 0.01 0.01 0.02 0.02 0.02 0.03 0.03 0.03 0.03 0.03 0.02 0.01 0.00 0.00 0.01 0.01 0.01 0.00 0.00 0.01 0.01 0.01 0.02 0.03
0.00 0.01 0.03 0.05 0.05 0.07 0.08 0.13 0.17 0.14 0.09 0.05 0.03 0.03 0.03 0.03 0.03 0.04 0.06 0.06 0.05 0.04 0.03 0.02 0.02 0.01 0.01 0.01 0.02 0.02 0.01 0.02 0.02 0.02 0.01 0.02 0.01 0.01 0.00 0.01 0.01 0.01 0.01 0.01 0.01 0.01 0.01 0.02 0.02
0.00 0.00 0.01 0.04 0.06 0.06 0.11 0.21 0.17 0.15 0.12 0.08 0.04 0.02 0.03 0.02 0.04 0.05 0.05 0.06 0.06 0.04 0.02 0.01 0.01 0.01 0.01 0.02 0.02 0.02 0.01 0.01 0.01 0.01 0.01 0.02 0.02 0.02 0.01 0.01 0.01 0.01 0.01 0.01 0.01 0.01 0.01 0.02 0.02
0.00 0.00 0.01 0.04 0.06 0.06 0.11 0.18 0.10 0.08 0.07 0.07 0.04 0.02 0.02 0.03 0.05 0.04 0.04 0.05 0.07 0.06 0.04 0.03 0.03 0.03 0.03 0.03 0.03 0.03 0.02 0.02 0.02 0.01 0.01 0.02 0.02 0.01 0.01 0.01 0.01 0.01 0.01 0.01 0.01 0.01 0.01 0.02 0.03
MSLP
1008.84 1009.37 1009.86 1010.15 1010.11 1009.70 1008.98 1008.07 1007.16 1006.44 1006.05 1006.05 1006.42 1007.05 1007.79 1008.48 1008.99 1009.27 1009.35 1009.32 1009.31 1009.44 1009.77 1010.33 1011.06 1011.87 1012.62 1013.23 1013.64 1013.85 1013.92 1013.94 1014.01 1014.18 1014.49 1014.92 1015.41 1015.89 1016.31 1016.60 1016.78 1016.86 1016.90 1016.95 1017.02 1017.15 1017.31 1017.47 1017.61
1009.05 1009.59 1010.01 1010.15 1009.93 1009.33 1008.45 1007.43 1006.46 1005.75 1005.40 1005.47 1005.89 1006.56 1007.29 1007.96 1008.43 1008.67 1008.75 1008.76 1008.82 1009.06 1009.52 1010.21 1011.06 1011.95 1012.77 1013.41 1013.84 1014.07 1014.16 1014.22 1014.33 1014.56 1014.91 1015.36 1015.84 1016.28 1016.63 1016.84 1016.93 1016.94 1016.94 1016.97 1017.07 1017.24 1017.45 1017.68 1017.86
1009.37 1009.88 1010.18 1010.16 1009.74 1008.97 1007.96 1006.87 1005.90 1005.24 1004.98 1005.12 1005.60 1006.28 1007.00 1007.60 1008.01 1008.20 1008.25 1008.28 1008.40 1008.73 1009.31 1010.11 1011.07 1012.04 1012.92 1013.61 1014.08 1014.35 1014.50 1014.61 1014.77 1015.03 1015.40 1015.84 1016.27 1016.64 1016.89 1017.00 1017.01 1016.97 1016.95 1017.00 1017.14 1017.38 1017.66 1017.94 1018.17
1009.71 1010.15 1010.31 1010.11 1009.52 1008.62 1007.53 1006.44 1005.53 1004.97 1004.82 1005.06 1005.60 1006.29 1006.96 1007.49 1007.81 1007.93 1007.94 1007.96 1008.13 1008.53 1009.19 1010.09 1011.12 1012.16 1013.09 1013.83 1014.34 1014.66 1014.86 1015.03 1015.24 1015.53 1015.90 1016.31 1016.68 1016.96 1017.12 1017.15 1017.10 1017.03 1017.01 1017.09 1017.29 1017.59 1017.94 1018.27 1018.52
1009.97 1010.29 1010.30 1009.93 1009.21 1008.23 1007.13 1006.11 1005.33 1004.93 1004.93 1005.29 1005.88 1006.56 1007.18 1007.62 1007.84 1007.88 1007.84 1007.86 1008.05 1008.50 1009.22 1010.17 1011.24 1012.31 1013.26 1014.01 1014.55 1014.91 1015.16 1015.38 1015.64 1015.96 1016.33 1016.71 1017.03 1017.24 1017.33 1017.30 1017.21 1017.13 1017.14 1017.27 1017.52 1017.88 1018.27 1018.61 1018.85
1010.05 1010.23 1010.08 1009.58 1008.77 1007.78 1006.76 1005.88 1005.28 1005.08 1005.25 1005.73 1006.38 1007.05 1007.60 1007.95 1008.08 1008.05 1007.96 1007.97 1008.17 1008.64 1009.38 1010.34 1011.40 1012.45 1013.38 1014.12 1014.66 1015.04 1015.32 1015.59 1015.89 1016.24 1016.62 1016.98 1017.27 1017.45 1017.50 1017.45 1017.35 1017.29 1017.33 1017.50 1017.79 1018.17 1018.57 1018.89 1019.09
1009.90 1009.93 1009.63 1009.03 1008.20 1007.26 1006.38 1005.70 1005.34 1005.36 1005.71 1006.31 1007.00 1007.66 1008.15 1008.42 1008.47 1008.37 1008.25 1008.24 1008.44 1008.91 1009.64 1010.56 1011.57 1012.56 1013.42 1014.10 1014.61 1014.98 1015.29 1015.59 1015.93 1016.31 1016.72 1017.09 1017.38 1017.55 1017.60 1017.56 1017.49 1017.46 1017.53 1017.72 1018.03 1018.40 1018.76 1019.03 1019.17
1009.53 1009.41 1009.00 1008.35 1007.55 1006.74 1006.05 1005.61 1005.50 1005.74 1006.26 1006.96 1007.69 1008.32 1008.75 1008.95 1008.93 1008.79 1008.65 1008.63 1008.82 1009.27 1009.95 1010.80 1011.72 1012.60 1013.35 1013.96 1014.42 1014.77 1015.08 1015.41 1015.78 1016.20 1016.64 1017.04 1017.35 1017.54 1017.61 1017.60 1017.57 1017.57 1017.66 1017.86 1018.15 1018.48 1018.78 1018.98 1019.05
1009.02 1008.76 1008.28 1007.64 1006.93 1006.28 1005.82 1005.64 1005.77 1006.22 1006.89 1007.66 1008.39 1008.99 1009.36 1009.49 1009.42 1009.26 1009.11 1009.09 1009.27 1009.68 1010.29 1011.04 1011.84 1012.59 1013.23 1013.74 1014.13 1014.46 1014.77 1015.12 1015.52 1015.97 1016.44 1016.86 1017.20 1017.42 1017.53 1017.56 1017.56 1017.59 1017.69 1017.88 1018.13 1018.40 1018.62 1018.75 1018.75
1008.46 1008.12 1007.62 1007.03 1006.45 1006.01 1005.78 1005.84 1006.20 1006.81 1007.58 1008.38 1009.10 1009.64 1009.95 1010.03 1009.93 1009.76 1009.61 1009.59 1009.75 1010.11 1010.65 1011.28 1011.95 1012.57 1013.09 1013.51 1013.85 1014.15 1014.47 1014.83 1015.25 1015.72 1016.20 1016.64 1016.99 1017.23 1017.36 1017.42 1017.45 1017.50 1017.59 1017.75 1017.96 1018.16 1018.32 1018.38 1018.33
1007.97 1007.60 1007.12 1006.63 1006.22 1005.99 1005.99 1006.27 1006.80 1007.53 1008.35 1009.14 1009.81 1010.28 1010.53 1010.57 1010.46 1010.28 1010.15 1010.13 1010.28 1010.59 1011.03 1011.56 1012.10 1012.60 1013.03 1013.38 1013.68 1013.97 1014.29 1014.66 1015.09 1015.56 1016.02 1016.44 1016.78 1017.02 1017.16 1017.23 1017.27 1017.32 1017.41 1017.54 1017.70 1017.84 1017.94 1017.96 1017.89
1007.63 1007.28 1006.87 1006.51 1006.28 1006.25 1006.46 1006.92 1007.57 1008.36 1009.17 1009.92 1010.51 1010.91 1011.10 1011.11 1010.99 1010.84 1010.73 1010.73 1010.85 1011.11 1011.48 1011.90 1012.34 1012.75 1013.11 1013.42 1013.71 1014.01 1014.33 1014.71 1015.13 1015.57 1015.99 1016.36 1016.65 1016.85 1016.97 1017.03 1017.07 1017.11 1017.19 1017.29 1017.41 1017.52 1017.58 1017.58 1017.50
1007.48 1007.18 1006.88 1006.66 1006.61 1006.76 1007.14 1007.71 1008.43 1009.22 1009.99 1010.66 1011.17 1011.49 1011.63 1011.63 1011.54 1011.42 1011.35 1011.36 1011.48 1011.69 1011.99 1012.33 1012.69 1013.03 1013.36 1013.66 1013.96 1014.28 1014.63 1015.00 1015.39 1015.78 1016.13 1016.42 1016.64 1016.78 1016.85 1016.89 1016.91 1016.94 1017.01 1017.09 1017.18 1017.27 1017.31 1017.30 1017.24
1007.49 1007.26 1007.07 1007.01 1007.11 1007.42 1007.91 1008.55 1009.28 1010.03 1010.71 1011.28 1011.69 1011.95 1012.07 1012.08 1012.04 1011.99 1011.97 1012.02 1012.14 1012.33 1012.57 1012.85 1013.15 1013.46 1013.77 1014.09 1014.43 1014.78 1015.14 1015.51 1015.86 1016.18 1016.44 1016.64 1016.76 1016.82 1016.84 1016.84 1016.84 1016.87 1016.92 1016.99 1017.08 1017.14 1017.18 1017.17 1017.12
1007.60 1007.43 1007.36 1007.42 1007.66 1008.08 1008.64 1009.30 1009.99 1010.65 1011.22 1011.67 1012.01 1012.22 1012.34 1012.40 1012.44 1012.49 1012.56 1012.66 1012.81 1012.99 1013.20 1013.44 1013.70 1013.98 1014.30 1014.64 1015.01 1015.40 1015.78 1016.13 1016.44 1016.68 1016.85 1016.95 1016.98 1016.96 1016.92 1016.89 1016.88 1016.90 1016.96 1017.03 1017.10 1017.16 1017.18 1017.17 1017.13
1007.70 1007.60 1007.62 1007.79 1008.14 1008.63 1009.22 1009.84 1010.46 1011.00 1011.44 1011.78 1012.03 1012.22 1012.37 1012.52 1012.68 1012.85 1013.04 1013.24 1013.44 1013.63 1013.83 1014.04 1014.27 1014.54 1014.86 1015.22 1015.62 1016.02 1016.41 1016.75 1017.02 1017.19 1017.28 1017.29 1017.24 1017.16 1017.09 1017.04 1017.03 1017.06 1017.11 1017.18 1017.25 1017.29 1017.30 1017.27 1017.22
1007.74 1007.69 1007.80 1008.06 1008.48 1009.01 1009.59 1010.15 1010.65 1011.05 1011.35 1011.57 1011.75 1011.93 1012.14 1012.40 1012.71 1013.05 1013.39 1013.71 1013.99 1014.22 1014.43 1014.61 1014.82 1015.07 1015.37 1015.74 1016.14 1016.55 1016.94 1017.26 1017.49 1017.62 1017.64 1017.59 1017.50 1017.39 1017.30 1017.25 1017.25 1017.29 1017.35 1017.43 1017.48 1017.51 1017.49 1017.45 1017.37
1007.68 1007.69 1007.88 1008.23 1008.70 1009.25 1009.79 1010.25 1010.61 1010.85 1010.99 1011.09 1011.20 1011.38 1011.66 1012.05 1012.53 1013.06 1013.58 1014.05 1014.44 1014.73 1014.95 1015.13 1015.31 1015.52 1015.79 1016.13 1016.51 1016.91 1017.28 1017.59 1017.79 1017.89 1017.89 1017.82 1017.71 1017.60 1017.52 1017.49 1017.51 1017.57 1017.64 1017.71 1017.76 1017.77 1017.73 1017.66 1017.56
1007.55 1007.63 1007.90 1008.34 1008.87 1009.41 1009.89 1010.25 1010.45 1010.50 1010.47 1010.43 1010.47 1010.64 1010.99 1011.52 1012.18 1012.90 1013.62 1014.26 1014.78 1015.15 1015.40 1015.57 1015.71 1015.87 1016.09 1016.38 1016.72 1017.09 1017.43 1017.72 1017.91 1018.00 1018.01 1017.94 1017.85 1017.77 1017.72 1017.72 1017.77 1017.85 1017.93 1018.01 1018.04 1018.04 1017.98 1017.89 1017.77
1007.40 1007.58 1007.95 1008.48 1009.06 1009.61 1010.03 1010.26 1010.29 1010.15 1009.94 1009.76 1009.70 1009.86 1010.26 1010.90 1011.73 1012.65 1013.56 1014.37 1015.02 1015.49 1015.78 1015.94 1016.04 1016.14 1016.29 1016.51 1016.79 1017.10 1017.42 1017.69 1017.89 1017.99 1018.02 1018.00 1017.94 1017.90 1017.88 1017.92 1017.99 1018.09 1018.19 1018.26 1018.30 1018.29 1018.24 1018.15 1018.03
1007.32 1007.61 1008.11 1008.74 1009.39 1009.94 1010.29 1010.40 1010.26 1009.94 1009.54 1009.20 1009.04 1009.15 1009.58 1010.31 1011.27 1012.36 1013.44 1014.41 1015.19 1015.75 1016.08 1016.25 1016.31 1016.34 1016.42 1016.55 1016.77 1017.03 1017.32 1017.58 1017.79 1017.92 1017.99 1018.01 1018.00 1017.99 1018.01 1018.07 1018.16 1018.27 1018.38 1018.46 1018.52 1018.52 1018.49 1018.42 1018.33
1007.36 1007.79 1008.43 1009.17 1009.88 1010.44 1010.74 1010.74 1010.45 1009.95 1009.38 1008.88 1008.60 1008.65 1009.07 1009.85 1010.90 1012.11 1013.33 1014.43 1015.32 1015.95 1016.33 1016.50 1016.53 1016.51 1016.52 1016.59 1016.74 1016.96 1017.22 1017.48 1017.70 1017.87 1017.98 1018.03 1018.06 1018.08 1018.11 1018.17 1018.26 1018.37 1018.49 1018.59 1018.67 1018.71 1018.72 1018.70 1018.66
1007.55 1008.13 1008.90 1009.74 1010.51 1011.08 1011.35 1011.26 1010.85 1010.20 1009.48 1008.84 1008.45 1008.43 1008.81 1009.59 1010.69 1011.97 1013.27 1014.46 1015.43 1016.12 1016.53 1016.71 1016.73 1016.68 1016.63 1016.65 1016.75 1016.94 1017.19 1017.45 1017.69 1017.89 1018.02 1018.10 1018.14 1018.17 1018.19 1018.23 1018.31 1018.40 1018.51 1018.63 1018.74 1018.84 1018.91 1018.96 1018.98
1007.89 1008.59 1009.47 1010.39 1011.21 1011.79 1012.03 1011.89 1011.40 1010.65 1009.83 1009.09 1008.61 1008.51 1008.84 1009.59 1010.68 1011.97 1013.30 1014.52 1015.53 1016.26 1016.70 1016.89 1016.91 1016.85 1016.78 1016.78 1016.86 1017.03 1017.28 1017.55 1017.80 1018.01 1018.16 1018.24 1018.27 1018.27 1018.26 1018.26 1018.29 1018.36 1018.47 1018.60 1018.75 1018.91 1019.05 1019.17 1019.25
1008.35 1009.13 1010.07 1011.03 1011.88 1012.46 1012.70 1012.53 1012.01 1011.23 1010.36 1009.58 1009.05 1008.89 1009.17 1009.86 1010.90 1012.15 1013.45 1014.66 1015.66 1016.40 1016.86 1017.06 1017.10 1017.04 1016.98 1016.98 1017.07 1017.24 1017.49 1017.77 1018.03 1018.24 1018.38 1018.44 1018.44 1018.39 1018.32 1018.26 1018.25 1018.28 1018.37 1018.52 1018.70 1018.91 1019.11 1019.29 1019.43
1008.89 1009.68 1010.63 1011.59 1012.42 1013.01 1013.24 1013.10 1012.60 1011.86 1011.02 1010.26 1009.73 1009.55 1009.78 1010.41 1011.37 1012.53 1013.75 1014.90 1015.86 1016.57 1017.03 1017.25 1017.30 1017.28 1017.25 1017.27 1017.37 1017.57 1017.82 1018.10 1018.36 1018.55 1018.67 1018.69 1018.64 1018.52 1018.39 1018.27 1018.20 1018.19 1018.26 1018.41 1018.62 1018.86 1019.11 1019.34 1019.51
1009.47 1010.23 1011.11 1012.02 1012.81 1013.38 1013.63 1013.54 1013.13 1012.49 1011.76 1011.09 1010.62 1010.46 1010.66 1011.22 1012.08 1013.13 1014.23 1015.28 1016.16 1016.82 1017.26 1017.49 1017.57 1017.58 1017.59 1017.64 1017.77 1017.98 1018.24 1018.51 1018.74 1018.91 1018.99 1018.96 1018.85 1018.68 1018.48 1018.30 1018.18 1018.14 1018.19 1018.33 1018.55 1018.81 1019.09 1019.33 1019.51
1010.11 1010.76 1011.54 1012.34 1013.06 1013.59 1013.87 1013.86 1013.58 1013.10 1012.54 1012.02 1011.67 1011.57 1011.78 1012.28 1013.04 1013.95 1014.92 1015.83 1016.61 1017.20 1017.60 1017.83 1017.93 1017.97 1018.01 1018.10 1018.25 1018.46 1018.70 1018.95 1019.15 1019.28 1019.31 1019.24 1019.08 1018.86 1018.62 1018.39 1018.23 1018.16 1018.19 1018.32 1018.54 1018.80 1019.07 1019.30 1019.47
1010.79 1011.31 1011.94 1012.61 1013.23 1013.73 1014.04 1014.12 1014.00 1013.72 1013.37 1013.05 1012.85 1012.85 1013.09 1013.56 1014.22 1015.00 1015.82 1016.59 1017.24 1017.75 1018.09 1018.30 1018.41 1018.48 1018.54 1018.64 1018.79 1018.98 1019.19 1019.39 1019.55 1019.63 1019.61 1019.50 1019.31 1019.06 1018.80 1018.56 1018.39 1018.30 1018.32 1018.44 1018.63 1018.87 1019.12 1019.32 1019.46
1011.55 1011.93 1012.40 1012.92 1013.44 1013.89 1014.22 1014.40 1014.44 1014.37 1014.25 1014.14 1014.13 1014.25 1014.53 1014.98 1015.56 1016.22 1016.89 1017.52 1018.05 1018.46 1018.75 1018.93 1019.03 1019.09 1019.16 1019.24 1019.36 1019.51 1019.67 1019.81 1019.90 1019.93 1019.87 1019.74 1019.54 1019.29 1019.04 1018.82 1018.66 1018.58 1018.59 1018.68 1018.85 1019.05 1019.25 1019.41 1019.51
Thickness
5811 5817 5821 5817 5804 5799 5804 5832 5848 5843 5842 5848 5848 5836 5819 5808 5798 5785 5817 5829 5823 5814 5805 5800 5796 5792 5789 5786 5783 5781 5778 5775 5773 5771 5769 5768 5767 5765 5764 5763 5761 5759 5758 5756 5755 5753 5752 5751 5749
5811 5820 5817 5808 5793 5788 5812 5840 5839 5838 5842 5847 5843 5835 5820 5810 5815 5814 5819 5823 5819 5812 5804 5798 5793 5789 5786 5783 5780 5777 5774 5772 5770 5768 5766 5764 5762 5761 5760 5759 5758 5756 5755 5754 5752 5751 5749 5748 5747
5808 5817 5806 5800 5794 5799 5822 5843 5840 5842 5846 5840 5832 5828 5814 5804 5812 5814 5819 5821 5817 5810 5801 5793 5790 5786 5782 5779 5776 5773 5770 5768 5766 5764 5762 5760 5759 5757 5756 5755 5754 5753 5752 5751 5749 5748 5747 5746 5745
5808 5806 5803 5797 5799 5823 5834 5837 5841 5835 5835 5837 5827 5812 5807 5811 5814 5816 5819 5818 5812 5805 5796 5788 5786 5782 5778 5775 5772 5769 5766 5764 5762 5760 5758 5757 5755 5754 5752 5752 5750 5749 5748 5747 5746 5745 5744 5743 5743
5804 5797 5787 5791 5807 5832 5842 5841 5837 5829 5824 5826 5820 5799 5794 5807 5816 5817 5815 5813 5807 5800 5791 5784 5781 5777 5773 5770 5768 5765 5762 5759 5757 5756 5755 5753 5752 5750 5749 5748 5747 5746 5745 5744 5743 5743 5742 5741 5741
5793 5794 5780 5787 5811 5830 5836 5836 5831 5826 5821 5821 5812 5794 5786 5803 5807 5808 5810 5807 5803 5796 5788 5780 5775 5772 5768 5765 5762 5760 5758 5755 5753 5752 5751 5749 5748 5747 5746 5745 5744 5742 5742 5741 5741 5740 5740 5739 5739
5785 5785 5785 5801 5815 5820 5827 5834 5826 5817 5809 5812 5811 5787 5780 5792 5800 5804 5804 5801 5797 5791 5784 5777 5771 5767 5764 5761 5758 5755 5754 5751 5749 5747 5746 5745 5745 5744 5742 5741 5740 5740 5739 5738 5738 5738 5737 5737 5737
5795 5786 5786 5804 5812 5814 5825 5827 5826 5817 5808 5813 5811 5786 5775 5786 5797 5799 5797 5793 5790 5786 5779 5774 5769 5765 5761 5757 5754 5751 5749 5747 5745 5744 5742 5741 5741 5740 5739 5738 5737 5737 5736 5736 5736 5735 5735 5735 5735
5797 5776 5779 5805 5813 5813 5819 5814 5815 5817 5808 5803 5802 5795 5787 5791 5792 5789 5785 5782 5779 5777 5774 5771 5766 5762 5758 5754 5750 5747 5744 5742 5740 5739 5738 5737 5737 5737 5736 5737 5735 5734 5733 5733 5733 5733 5733 5733 5733
5789 5774 5791 5818 5825 5814 5812 5811 5811 5804 5793 5785 5783 5784 5787 5786 5783 5779 5775 5770 5768 5767 5767 5766 5763 5759 5755 5751 5746 5743 5741 5738 5737 5736 5735 5734 5735 5735 5735 5734 5732 5731 5731 5730 5730 5731 5731 5731 5732
5788 5784 5801 5813 5818 5815 5806 5805 5808 5797 5781 5778 5773 5774 5777 5777 5775 5772 5768 5765 5762 5763 5762 5761 5758 5755 5751 5747 5742 5740 5738 5736 5735 5734 5732 5732 5732 5732 5732 5731 5729 5728 5728 5728 5728 5728 5729 5731 5733
5788 5794 5802 5806 5810 5806 5799 5796 5792 5786 5777 5781 5776 5776 5773 5769 5767 5765 5761 5759 5757 5755 5753 5753 5751 5748 5745 5741 5737 5736 5735 5732 5731 5730 5729 5730 5729 5729 5729 5728 5728 5728 5728 5728 5728 5727 5729 5731 5732
5783 5789 5796 5801 5802 5799 5796 5790 5782 5773 5780 5780 5775 5771 5766 5764 5762 5760 5758 5754 5751 5747 5746 5745 5743 5739 5737 5734 5732 5730 5730 5727 5725 5726 5724 5724 5725 5725 5725 5726 5726 5726 5726 5726 5726 5726 5728 5729 5728
5787 5790 5790 5793 5793 5793 5785 5778 5772 5767 5774 5771 5764 5762 5761 5758 5756 5752 5749 5746 5743 5740 5738 5738 5736 5733 5730 5728 5726 5725 5724 5723 5722 5722 5720 5720 5719 5720 5720 5721 5721 5722 5723 5723 5724 5724 5725 5726 5726
5789 5779 5777 5781 5784 5784 5779 5760 5761 5767 5769 5762 5758 5757 5754 5751 5749 5745 5742 5739 5737 5733 5731 5730 5729 5727 5724 5722 5720 5719 5718 5718 5717 5716 5715 5714 5713 5714 5714 5715 5715 5717 5719 5720 5720 5721 5722 5723 5723
5774 5763 5753 5768 5778 5781 5770 5739 5750 5761 5761 5755 5754 5751 5747 5743 5742 5740 5737 5733 5731 5727 5724 5723 5723 5720 5718 5717 5715 5713 5712 5711 5711 5710 5709 5708 5707 5708 5708 5709 5710 5712 5714 5716 5717 5717 5717 5717 5717
5753 5742 5741 5752 5774 5777 5764 5740 5742 5756 5755 5750 5748 5745 5740 5736 5735 5734 5732 5728 5724 5721 5718 5716 5715 5714 5712 5711 5708 5707 5706 5705 5704 5704 5703 5702 5702 5703 5702 5703 5705 5707 5708 5710 5711 5712 5712 5711 5711
5741 5745 5741 5745 5764 5769 5756 5740 5745 5751 5749 5746 5745 5741 5737 5731 5728 5727 5725 5722 5718 5715 5712 5710 5708 5707 5706 5704 5702 5701 5700 5698 5697 5696 5695 5695 5696 5696 5697 5699 5701 5701 5702 5703 5704 5706 5707 5707 5707
5757 5751 5743 5749 5761 5760 5749 5736 5739 5747 5747 5744 5743 5738 5733 5726 5725 5723 5719 5716 5711 5708 5706 5703 5701 5700 5699 5697 5695 5693 5692 5691 5690 5689 5689 5689 5689 5690 5692 5694 5696 5697 5697 5697 5698 5699 5700 5701 5701
5759 5750 5742 5747 5758 5752 5741 5735 5741 5744 5748 5747 5743 5735 5730 5723 5719 5716 5713 5709 5705 5702 5699 5697 5695 5694 5693 5691 5689 5688 5687 5686 5685 5683 5682 5682 5683 5684 5686 5687 5690 5691 5692 5692 5692 5693 5693 5695 5697
5756 5751 5745 5743 5751 5753 5740 5729 5732 5741 5750 5750 5747 5739 5731 5723 5716 5712 5708 5704 5700 5696 5694 5692 5689 5687 5686 5686 5685 5682 5681 5679 5677 5676 5676 5676 5677 5678 5679 5681 5683 5684 5686 5686 5687 5688 5688 5687 5691
5744 5759 5756 5751 5743 5734 5733 5711 5722 5733 5736 5741 5742 5737 5729 5723 5715 5709 5704 5699 5696 5692 5689 5685 5682 5681 5680 5680 5678 5675 5672 5670 5670 5670 5670 5670 5671 5671 5672 5673 5675 5677 5679 5680 5682 5683 5683 5683 5683
5753 5766 5761 5755 5744 5733 5731 5715 5715 5728 5722 5727 5733 5733 5729 5722 5714 5706 5701 5695 5691 5687 5683 5679 5676 5674 5673 5673 5671 5669 5667 5665 5665 5664 5664 5665 5665 5666 5666 5667 5668 5671 5672 5673 5675 5675 5676 5678 5678
5764 5759 5754 5749 5737 5713 5721 5713 5707 5718 5720 5720 5726 5728 5723 5718 5710 5703 5696 5690 5685 5682 5678 5673 5669 5666 5666 5665 5664 5661 5659 5658 5657 5657 5657 5658 5659 5660 5659 5660 5661 5663 5664 5666 5667 5668 5670 5671 5672
5754 5735 5713 5705 5698 5702 5719 5711 5706 5721 5726 5724 5720 5720 5719 5714 5705 5696 5688 5683 5678 5674 5671 5667 5663 5660 5658 5657 5656 5654 5653 5651 5650 5649 5650 5651 5651 5652 5652 5653 5654 5655 5657 5658 5660 5661 5663 5664 5665
5740 5730 5702 5684 5682 5691 5700 5695 5702 5716 5726 5725 5724 5718 5714 5706 5698 5690 5682 5676 5671 5668 5664 5661 5656 5653 5651 5650 5648 5647 5646 5645 5644 5643 5644 5644 5644 5644 5644 5645 5647 5648 5650 5651 5653 5655 5656 5657 5658
5730 5725 5727 5708 5702 5694 5694 5694 5701 5710 5713 5715 5713 5708 5703 5698 5689 5682 5675 5670 5665 5661 5657 5653 5649 5646 5644 5642 5641 5639 5638 5637 5635 5635 5636 5636 5636 5637 5637 5638 5639 5640 5641 5643 5645 5646 5648 5649 5650
5747 5732 5720 5704 5687 5680 5686 5682 5681 5691 5696 5700 5699 5696 5692 5687 5682 5675 5668 5663 5658 5653 5649 5646 5642 5639 5637 5635 5633 5631 5629 5628 5627 5627 5626 5626 5627 5628 5629 5630 5630 5631 5633 5634 5636 5638 5639 5641 5642
5730 5728 5718 5706 5701 5684 5672 5671 5689 5690 5695 5693 5691 5688 5683 5678 5673 5667 5661 5655 5649 5645 5641 5637 5634 5631 5628 5626 5624 5622 5621 5620 5618 5617 5617 5618 5618 5619 5620 5621 5622 5622 5624 5625 5626 5628 5630 5632 5634
5733 5730 5722 5701 5695 5695 5680 5668 5695 5694 5693 5690 5685 5680 5674 5669 5664 5658 5652 5646 5640 5635 5632 5628 5625 5622 5620 5618 5616 5614 5613 5612 5610 5609 5608 5609 5609 5610 5611 5611 5612 5613 5614 5615 5616 5618 5620 5622 5624